Temperature
23 22 21 22 25 26 27 30 33 34 34 34 34 34 34 32 31 29 28 27 25 25 25 24 24 23 22 22 21 21 20 20 20 20 19 19 19 19 19 19 19 19 19 19 19 19 19 19 19
23 22 22 25 26 25 27 31 33 34 35 35 34 34 33 31 30 29 27 26 25 25 25 24 24 23 22 22 21 21 20 20 20 19 19 19 19 19 19 19 19 19 19 19 19 19 19 19 19
22 23 26 29 29 28 30 32 34 35 35 34 34 33 32 31 29 28 27 26 24 24 24 24 24 23 23 22 21 21 20 20 20 20 19 19 19 19 19 19 19 19 19 19 19 19 20 20 20
23 26 28 30 31 33 34 34 35 35 35 34 34 33 30 29 29 28 27 25 23 23 24 24 24 23 23 22 22 21 21 20 20 20 20 20 20 20 20 20 20 20 19 19 20 20 20 20 20
24 28 30 32 33 35 35 35 35 35 35 34 34 32 29 28 28 27 26 25 24 22 23 24 24 23 23 22 22 21 21 20 20 20 20 20 20 20 20 20 20 20 20 20 20 20 20 20 20
27 31 31 32 34 35 36 35 35 35 35 34 33 31 28 28 27 27 27 26 25 23 23 24 24 23 23 22 22 21 21 21 21 20 20 20 20 20 20 20 20 20 20 20 19 20 20 20 20
28 31 31 33 34 35 36 35 35 35 35 34 33 31 28 28 27 27 27 26 26 24 23 24 23 23 23 22 22 22 21 21 21 21 21 20 20 20 20 20 20 20 20 20 19 20 20 20 20
29 31 31 33 34 35 36 35 35 35 34 33 33 31 28 28 27 27 27 27 26 24 23 23 23 23 23 22 22 22 21 21 21 21 21 21 20 20 20 20 20 20 20 20 20 19 19 19 19
29 30 30 32 34 35 36 35 35 34 34 32 31 30 29 28 28 27 27 27 26 25 23 22 22 22 22 22 22 22 21 21 21 21 20 20 20 20 20 20 20 19 19 20 19 19 19 19 19
30 30 31 34 35 35 35 34 34 34 32 30 30 29 28 28 27 27 27 27 26 25 24 23 22 21 21 20 21 21 21 21 21 20 20 20 20 19 19 19 19 19 19 19 19 19 19 19 19
31 31 32 34 34 34 34 34 33 33 31 29 28 28 28 28 27 27 27 27 26 25 25 24 22 21 21 21 20 20 20 20 20 19 19 19 19 19 19 19 19 19 19 19 19 19 19 19 19
32 32 33 33 33 33 34 33 32 32 30 29 29 29 28 28 27 27 26 26 25 24 24 24 22 21 21 21 20 20 20 20 19 19 19 19 19 18 19 19 19 18 18 19 18 18 18 18 18
32 33 33 33 33 33 33 33 32 31 29 28 28 28 27 27 27 26 25 24 24 23 23 23 22 21 20 20 20 20 20 20 20 19 19 19 19 18 18 18 18 18 18 18 18 18 18 18 18
32 33 33 33 33 33 33 32 31 30 28 27 26 25 25 24 24 24 24 23 23 22 22 22 21 20 20 20 20 20 20 20 19 19 19 19 18 18 18 18 18 18 18 18 18 18 18 18 18
32 32 32 33 33 33 32 30 30 28 27 26 24 23 22 22 22 22 22 21 21 21 21 21 20 20 19 19 19 19 19 19 19 19 18 18 18 18 18 18 18 18 18 18 18 18 18 18 18
32 31 31 31 32 32 32 29 28 27 27 25 23 22 21 20 21 20 20 20 20 20 20 20 19 19 19 18 18 18 18 18 18 18 18 18 18 17 17 17 17 17 17 17 17 17 17 17 17
30 29 30 30 30 31 31 28 27 27 26 24 23 22 21 20 20 20 20 19 19 19 19 19 19 19 18 18 18 18 18 18 18 18 18 17 17 17 17 17 17 17 17 17 17 17 17 17 17
28 28 28 28 29 30 29 27 27 27 26 24 23 22 21 20 20 19 19 19 19 19 19 19 18 18 18 18 18 18 17 17 17 17 17 17 17 17 16 16 16 16 16 16 16 16 16 16 17
29 28 28 28 29 30 29 27 27 27 26 25 24 22 21 20 20 19 19 19 18 18 18 18 18 18 18 18 18 17 17 17 17 17 17 17 16 16 16 16 16 16 16 16 16 16 16 16 16
30 28 28 28 29 30 28 27 27 26 25 24 23 23 22 21 20 19 19 18 18 18 18 18 17 17 17 17 17 17 17 17 17 16 16 16 16 16 16 15 16 15 15 15 16 15 16 16 16
28 27 27 28 28 28 26 24 23 24 24 24 24 23 23 22 21 20 20 19 18 18 18 17 17 17 17 17 17 16 16 16 16 16 16 16 16 15 15 15 15 15 15 15 15 15 15 16 16
27 28 28 28 27 26 25 21 20 20 22 24 24 24 23 22 22 21 20 20 19 18 18 17 17 17 16 16 16 16 16 16 16 16 16 15 15 15 15 15 15 15 15 15 15 15 15 15 16
28 29 27 26 25 24 23 21 19 19 21 23 24 24 23 23 22 21 21 20 19 19 18 18 17 17 16 16 16 15 15 15 15 15 15 15 15 15 15 14 14 14 14 14 14 15 15 15 15
30 28 25 23 22 21 22 21 19 19 21 24 25 24 23 23 22 22 21 20 20 19 19 18 18 17 16 16 15 15 14 14 14 14 14 14 14 15 15 14 14 14 14 14 14 14 14 15 15
29 25 21 19 19 20 21 22 21 23 24 26 25 25 24 23 23 22 21 21 20 19 19 18 18 17 16 15 15 14 14 14 14 14 14 14 14 14 14 14 14 14 13 13 14 14 14 14 14
29 27 23 22 21 21 21 21 23 26 26 26 25 25 24 24 23 22 22 21 20 20 19 18 17 17 16 15 15 14 14 14 13 13 13 13 13 14 14 14 13 13 13 13 13 13 13 13 13
29 29 29 28 26 24 22 21 23 26 26 26 26 25 25 24 23 23 22 21 20 19 18 18 17 16 15 15 14 14 14 13 13 13 13 13 13 13 13 13 13 13 13 12 12 12 12 12 13
30 30 29 28 26 25 24 22 22 24 25 26 26 25 24 24 23 22 21 20 19 18 18 17 16 16 15 14 14 14 13 13 13 12 12 12 12 12 12 12 12 12 12 12 12 12 12 12 12
30 29 29 28 27 26 25 23 25 25 26 26 26 25 24 23 22 21 20 19 18 18 17 16 15 15 14 14 13 13 12 12 12 11 11 11 11 11 11 11 11 12 12 11 11 11 11 11 11
30 29 29 27 27 27 27 24 27 27 27 26 25 24 23 22 21 20 19 18 18 17 16 15 14 14 13 13 12 12 12 11 11 11 10 10 10 10 10 10 11 11 11 11 11 11 11 11 11
Wind_Speed
13 13 10 7 5 3 6 6 8 11 11 10 8 8 15 16 12 8 10 18 25 22 20 20 19 17 15 15 15 15 14 14 13 13 12 12 11 11 11 10 10 9 9 10 10 10 10 9 9
13 13 9 5 4 2 3 4 6 8 7 5 7 9 15 16 13 11 13 19 25 22 19 19 19 17 16 15 15 14 14 14 14 13 12 12 11 11 10 10 9 9 9 9 9 9 9 9 8
13 14 7 6 8 5 2 2 4 5 7 5 7 11 11 10 11 9 15 20 22 20 18 20 20 18 16 15 15 14 14 14 13 13 12 12 11 11 10 10 9 8 8 9 9 8 8 8 7
7 9 7 10 14 5 2 3 4 5 5 4 6 10 10 9 9 14 18 20 21 19 19 21 20 18 16 15 14 14 13 13 13 12 12 11 11 11 10 10 9 9 8 8 8 8 8 7 7
10 7 12 16 16 5 2 4 5 4 4 5 8 14 12 11 15 18 18 20 19 19 19 20 19 18 16 15 14 13 12 12 12 11 11 11 10 10 10 10 9 9 9 9 8 8 8 8 7
8 9 14 15 12 4 1 4 4 5 4 5 8 14 10 10 13 16 17 17 19 20 19 19 19 18 16 15 13 13 12 12 12 11 11 11 10 10 10 10 10 9 8 9 9 9 9 8 8
11 13 18 20 17 10 2 2 4 4 4 5 5 11 10 11 11 14 15 15 18 21 20 16 17 16 15 14 13 13 12 12 12 11 11 11 10 10 10 10 11 10 10 9 9 10 10 10 10
12 13 19 19 17 11 2 2 3 3 4 3 3 9 11 13 13 14 14 14 16 20 19 16 16 16 15 14 14 13 12 12 11 11 11 11 11 11 12 12 13 12 11 11 11 11 11 12 12
16 14 17 19 15 9 5 4 4 2 1 7 11 13 15 17 16 14 13 13 12 16 18 16 17 14 14 15 15 14 13 12 12 11 12 11 11 13 14 17 17 16 15 14 14 13 14 14 14
15 15 20 18 15 12 8 5 6 5 7 9 11 10 13 13 14 13 13 13 12 12 15 14 16 14 12 12 14 13 13 13 13 13 14 13 13 13 14 19 21 20 18 17 16 16 15 15 14
19 20 20 20 16 12 10 6 5 3 4 7 5 3 8 10 10 9 10 10 10 9 8 13 13 12 9 6 10 8 9 11 14 14 14 13 12 11 10 8 15 17 17 15 15 16 14 14 13
22 21 20 19 15 11 10 7 4 5 6 7 4 4 6 6 8 7 7 8 10 6 5 6 11 10 4 2 3 4 3 4 6 9 11 8 4 4 4 2 6 10 12 11 10 9 13 14 14
19 19 18 17 13 11 9 6 3 4 8 9 9 8 7 4 5 6 7 7 9 5 3 4 7 7 4 2 3 1 1 1 2 3 6 5 4 5 6 3 3 5 7 7 6 6 7 8 8
15 15 15 15 12 10 8 5 3 3 7 9 10 12 13 13 12 11 10 8 7 6 5 6 6 6 4 2 1 3 3 2 3 1 2 4 4 4 5 5 5 5 5 5 3 5 6 6 6
14 15 16 13 12 10 9 6 3 4 7 10 11 12 13 13 14 13 11 9 9 8 7 6 4 4 3 0 1 3 3 3 3 2 3 4 6 5 5 6 7 6 7 6 5 5 4 7 7
14 15 15 12 11 10 11 6 7 6 9 11 11 10 11 11 11 11 11 10 10 9 7 6 5 5 4 2 2 3 3 3 3 4 4 4 5 6 5 6 7 6 5 5 6 6 6 6 6
12 12 11 5 6 6 7 8 8 10 12 12 11 10 10 10 10 9 9 9 9 9 7 7 6 5 4 3 2 2 2 3 3 3 3 4 5 6 5 6 6 5 6 6 7 6 6 6 7
7 8 4 3 5 5 6 10 9 9 12 12 11 10 9 9 9 9 9 8 8 8 7 6 5 5 4 3 2 2 2 2 2 2 2 4 5 5 4 5 6 6 6 6 6 6 5 5 6
9 5 3 4 6 5 8 11 9 10 10 11 10 10 10 10 9 8 7 7 8 7 6 5 4 4 2 2 3 3 3 3 2 2 1 3 4 5 4 5 4 4 5 6 7 6 6 6 5
8 4 2 3 4 2 4 7 8 9 8 9 10 10 10 10 8 7 6 6 6 5 4 3 3 3 3 3 3 2 3 4 3 2 1 1 2 3 4 4 4 4 5 5 5 5 4 5 6
7 5 7 6 5 2 4 3 5 5 7 6 9 8 8 8 8 7 5 5 4 3 2 2 2 2 3 4 4 4 4 3 3 2 1 1 2 2 3 3 3 4 3 4 4 5 6 5 4
7 7 9 9 7 4 4 3 2 1 3 5 7 8 7 6 5 5 4 3 2 2 2 3 1 1 2 4 4 6 6 6 5 4 2 2 2 3 3 3 3 2 2 3 4 4 4 4 5
5 4 6 10 9 7 3 1 4 3 7 7 7 6 5 4 4 3 1 2 1 2 2 2 3 2 3 4 6 7 7 6 6 6 6 5 4 4 4 3 2 2 2 2 2 3 3 3 4
4 5 10 12 8 6 6 1 3 7 9 8 8 6 4 3 2 2 2 2 2 3 3 3 2 2 3 4 6 7 8 8 8 8 8 7 5 5 5 5 3 2 2 1 1 2 3 3 4
5 4 5 5 3 7 10 3 6 9 8 7 6 4 2 2 1 2 3 4 3 4 4 3 3 2 3 4 6 6 7 8 9 9 8 8 6 4 4 4 4 3 2 2 2 2 3 3 3
7 3 2 4 4 5 4 2 5 11 9 6 4 3 0 1 1 2 3 3 3 4 4 4 4 4 4 5 7 7 8 7 7 8 7 7 6 7 6 4 5 5 5 5 4 3 3 3 3
7 8 8 8 5 1 4 4 4 7 6 4 4 4 4 5 5 6 6 6 6 6 6 6 6 6 6 6 7 8 9 8 8 9 9 8 7 9 8 6 5 6 7 6 5 4 5 4 4
7 9 7 8 8 7 6 6 4 4 4 5 6 7 8 8 9 10 9 9 8 8 7 8 7 6 7 8 8 10 8 8 8 9 9 9 9 9 9 9 9 8 7 7 7 6 6 6 5
7 8 8 8 8 8 6 6 6 3 4 7 9 10 10 11 11 11 10 10 9 9 9 8 8 8 8 8 8 8 8 8 8 8 9 9 9 9 9 9 9 9 9 8 8 8 8 8 7
5 6 7 7 7 7 6 5 4 4 8 10 10 11 11 10 10 11 11 10 10 10 10 10 9 9 9 9 8 8 8 9 9 11 10 10 10 10 10 9 10 11 11 10 10 11 10 9 9
Wind_Direction
179 192 205 223 243 259 316 339 22 42 46 52 47 40 58 51 51 79 106 113 116 124 133 138 136 136 136 137 140 143 146 147 144 141 140 140 138 136 134 132 129 125 121 117 116 114 111 108 107
190 200 213 237 233 248 296 342 19 47 49 45 59 53 68 66 72 97 106 117 120 127 138 140 139 138 137 137 140 143 146 149 149 147 146 145 144 144 143 140 137 134 128 124 122 120 119 118 117
220 228 249 245 242 232 250 23 18 59 69 43 66 65 57 71 83 103 119 125 123 129 134 136 142 141 140 139 141 145 147 149 151 152 151 151 151 152 152 149 146 142 139 135 132 130 129 130 131
233 229 242 254 267 265 291 37 11 38 65 48 65 82 73 66 95 116 129 127 124 131 133 140 144 143 144 144 145 148 151 152 154 156 158 159 160 161 161 158 155 153 149 146 145 145 145 146 148
243 258 251 264 275 284 328 34 357 27 41 49 74 95 87 89 106 123 133 130 136 137 133 143 146 146 147 149 151 153 156 157 160 162 165 167 168 170 169 167 167 166 164 163 161 162 161 163 167
249 257 269 279 288 291 334 49 338 37 42 49 87 104 100 107 121 135 138 144 143 136 135 142 147 149 152 155 158 160 162 166 169 172 173 176 177 180 182 180 178 179 179 177 176 177 177 180 184
257 275 282 288 293 295 309 31 345 22 25 43 82 109 118 132 143 143 145 149 144 136 134 146 150 152 156 160 165 169 172 174 177 179 181 185 188 192 195 195 193 192 193 193 192 192 193 194 197
263 281 283 282 284 292 354 31 16 9 50 29 56 102 134 147 158 146 150 153 146 137 141 151 154 156 161 167 173 177 181 184 187 190 193 196 201 205 207 205 202 202 201 202 204 206 207 206 207
259 264 269 274 289 307 16 17 353 354 82 61 54 94 135 150 155 153 157 158 151 141 143 158 154 159 168 172 173 179 187 193 195 201 206 208 213 212 210 215 206 203 205 207 211 214 216 216 216
241 253 262 275 301 313 339 345 320 338 28 48 53 78 122 148 154 163 162 161 153 144 153 158 154 159 175 177 159 181 190 191 200 205 200 208 225 232 224 206 201 202 206 210 215 218 220 221 224
245 250 266 283 297 305 308 313 341 348 44 54 60 96 136 152 153 167 166 161 145 151 164 151 147 151 180 160 159 187 194 182 197 214 205 208 222 233 238 201 192 199 206 213 216 217 221 222 224
249 252 262 276 290 296 293 292 339 26 40 50 62 100 118 156 157 161 151 144 132 157 161 133 135 143 166 140 172 184 198 178 190 199 212 215 218 252 261 244 195 198 206 210 216 208 214 223 228
254 253 257 265 270 271 275 275 302 45 50 53 55 60 63 74 92 95 95 103 120 135 123 86 102 112 112 41 338 301 304 270 229 183 202 225 224 239 253 256 254 246 228 208 208 215 219 222 227
272 270 265 262 256 249 247 244 242 68 66 66 59 48 43 42 50 59 69 68 86 87 70 62 74 91 100 100 313 317 309 316 305 302 257 250 256 241 251 259 250 251 258 256 220 222 229 229 231
266 266 262 257 245 232 223 218 155 80 88 83 76 64 52 45 46 50 57 59 69 74 76 69 83 90 102 129 286 285 290 301 305 324 313 289 281 283 271 264 254 243 245 251 248 242 231 232 230
265 257 252 253 243 217 216 183 121 130 110 96 90 83 72 57 53 50 55 55 58 63 69 63 60 66 67 48 348 312 324 330 336 337 333 311 295 288 277 269 262 247 242 239 236 233 237 239 240
262 260 254 239 245 229 209 140 127 118 113 106 101 93 86 77 65 58 63 66 64 63 65 65 50 42 36 24 347 315 307 310 311 313 323 326 316 303 286 274 270 261 246 240 242 227 227 237 240
295 277 249 203 218 186 144 125 129 128 124 118 113 106 99 90 79 73 72 77 76 73 69 67 63 48 24 12 344 324 318 318 302 316 331 324 316 312 306 293 283 266 250 239 234 233 226 237 242
259 248 232 186 219 187 153 139 143 134 125 121 118 114 109 101 97 90 84 81 83 80 78 70 61 54 24 16 344 339 337 329 320 310 353 331 322 320 305 304 305 288 260 242 236 232 227 231 232
294 331 297 252 270 249 152 135 134 115 112 119 122 123 123 124 119 114 115 107 97 94 94 103 76 38 8 12 321 290 301 295 283 280 211 271 305 310 300 299 297 293 287 268 241 233 230 229 220
330 337 295 272 250 223 137 102 54 92 111 134 132 130 127 130 129 133 127 122 122 117 114 80 61 21 2 338 317 323 307 283 288 293 257 244 279 282 277 287 289 298 296 289 282 254 234 234 241
318 306 296 300 279 257 194 174 157 259 166 163 149 140 131 125 133 139 143 135 142 160 166 149 169 268 308 310 318 317 308 307 310 301 293 284 265 267 259 269 276 282 287 295 291 288 265 246 251
272 280 335 352 349 341 354 126 138 190 194 186 166 140 130 135 138 135 143 159 216 266 264 201 190 219 268 290 292 297 300 308 313 319 309 291 270 248 233 227 242 267 260 264 297 321 309 280 264
299 346 8 11 12 322 276 198 173 194 200 177 150 136 146 159 170 177 223 211 236 257 265 271 245 239 258 272 283 285 291 295 298 297 294 287 268 243 224 211 197 221 245 271 293 298 297 295 286
344 10 10 357 348 275 268 234 176 170 153 129 118 122 152 165 194 221 247 251 251 263 271 286 291 293 296 297 295 297 298 297 286 278 278 279 284 279 245 226 187 207 218 226 233 256 264 276 286
311 299 250 270 235 245 243 182 126 121 116 113 111 103 56 12 342 308 299 299 300 310 323 323 327 324 316 307 302 299 294 287 286 294 305 302 298 297 288 256 213 206 212 228 219 240 246 244 251
330 333 326 314 310 133 146 111 102 119 105 72 46 21 7 359 344 337 348 345 342 349 350 341 339 332 321 310 301 286 278 285 294 296 290 285 280 283 287 290 263 228 214 213 210 223 234 238 241
329 336 349 338 347 347 96 116 130 95 20 10 19 13 4 354 351 353 352 347 355 353 347 341 340 334 323 313 305 306 310 307 299 295 293 291 287 282 278 272 267 257 237 218 210 219 223 223 228
343 358 359 346 358 338 8 88 107 66 5 18 16 13 7 2 356 351 347 349 351 345 339 341 342 336 327 320 315 310 305 303 300 295 294 293 290 286 281 278 273 263 251 235 221 221 221 220 226
336 358 345 339 340 326 342 102 60 29 31 31 15 7 3 354 347 344 344 351 346 341 340 337 335 328 324 323 322 320 321 320 314 309 306 303 298 294 289 281 277 273 264 244 229 224 226 219 219
Height
1498 1499 1500 1504 1503 1502 1496 1476 1461 1457 1457 1459 1460 1459 1461 1468 1475 1487 1488 1489 1489 1491 1495 1499 1503 1505 1508 1511 1514 1517 1520 1522 1524 1526 1528 1530 1532 1533 1535 1536 1538 1539 1540 1542 1543 1544 1546 1547 1548
1498 1499 1503 1502 1501 1509 1497 1473 1464 1459 1459 1459 1459 1461 1464 1472 1478 1484 1488 1490 1490 1492 1496 1500 1503 1506 1509 1512 1515 1518 1520 1523 1525 1527 1529 1531 1532 1534 1535 1537 1538 1540 1541 1542 1544 1545 1546 1548 1549
1499 1502 1502 1492 1489 1496 1486 1466 1461 1457 1460 1460 1461 1465 1470 1477 1482 1485 1489 1492 1492 1494 1497 1500 1504 1507 1509 1512 1515 1518 1521 1523 1525 1527 1529 1531 1533 1534 1536 1538 1539 1540 1542 1543 1544 1546 1547 1548 1550
1500 1502 1497 1487 1480 1470 1463 1459 1457 1457 1460 1460 1461 1467 1477 1481 1484 1486 1490 1493 1493 1495 1498 1501 1504 1507 1510 1512 1515 1518 1521 1523 1525 1528 1529 1531 1533 1534 1536 1538 1539 1541 1542 1543 1545 1546 1547 1549 1550
1502 1497 1488 1480 1468 1459 1455 1456 1457 1458 1460 1461 1463 1471 1480 1484 1485 1488 1491 1494 1495 1497 1498 1502 1505 1508 1510 1513 1515 1518 1521 1523 1525 1527 1529 1531 1533 1534 1536 1537 1539 1540 1542 1543 1544 1546 1547 1549 1550
1500 1490 1486 1479 1464 1455 1454 1456 1457 1458 1461 1462 1465 1471 1482 1486 1487 1489 1492 1495 1497 1498 1499 1503 1505 1508 1510 1513 1515 1518 1520 1523 1525 1527 1529 1530 1532 1534 1535 1537 1538 1540 1541 1542 1544 1545 1546 1548 1549
1499 1489 1484 1474 1464 1457 1453 1456 1457 1459 1462 1464 1467 1472 1481 1487 1488 1490 1493 1496 1498 1499 1499 1503 1505 1508 1510 1513 1515 1518 1520 1522 1524 1526 1528 1530 1531 1533 1534 1536 1537 1539 1540 1541 1543 1544 1545 1546 1548
1495 1489 1483 1474 1466 1458 1452 1456 1458 1461 1464 1467 1467 1472 1481 1485 1488 1490 1493 1496 1499 1500 1500 1503 1505 1508 1511 1513 1515 1518 1520 1522 1524 1526 1527 1529 1530 1532 1533 1534 1536 1537 1538 1540 1541 1542 1543 1544 1546
1494 1492 1487 1474 1464 1457 1454 1458 1460 1462 1464 1467 1470 1473 1479 1483 1487 1490 1493 1496 1499 1501 1501 1504 1506 1508 1511 1513 1515 1518 1519 1521 1523 1525 1526 1528 1529 1530 1531 1533 1534 1535 1536 1537 1539 1540 1541 1542 1543
1489 1488 1479 1466 1460 1457 1458 1461 1463 1465 1467 1471 1474 1479 1482 1484 1487 1490 1492 1495 1499 1502 1503 1505 1507 1508 1512 1514 1515 1517 1518 1520 1522 1523 1524 1526 1527 1529 1531 1531 1531 1532 1534 1534 1535 1537 1538 1539 1540
1481 1479 1472 1466 1463 1461 1461 1463 1465 1466 1471 1477 1479 1482 1483 1485 1488 1490 1493 1496 1499 1502 1505 1507 1508 1509 1513 1516 1516 1518 1519 1520 1521 1522 1523 1524 1526 1528 1529 1530 1529 1529 1530 1531 1531 1532 1534 1535 1537
1475 1472 1469 1467 1465 1464 1464 1465 1467 1470 1475 1479 1480 1483 1483 1485 1487 1490 1492 1495 1498 1503 1506 1508 1508 1509 1513 1516 1517 1518 1520 1520 1520 1521 1522 1523 1524 1525 1527 1527 1527 1526 1526 1527 1528 1529 1530 1531 1533
1468 1466 1465 1465 1464 1465 1466 1467 1469 1473 1477 1480 1482 1484 1485 1486 1487 1489 1492 1494 1497 1502 1505 1507 1508 1508 1511 1514 1515 1517 1518 1520 1520 1520 1520 1521 1521 1522 1523 1523 1524 1524 1524 1524 1524 1525 1527 1528 1529
1465 1462 1462 1461 1461 1463 1465 1467 1471 1475 1479 1482 1485 1487 1487 1487 1488 1490 1493 1495 1497 1501 1504 1505 1507 1508 1509 1511 1514 1515 1515 1517 1517 1517 1517 1517 1518 1518 1518 1518 1519 1519 1520 1520 1520 1521 1522 1523 1525
1464 1463 1461 1459 1459 1461 1464 1470 1472 1478 1480 1484 1488 1490 1491 1491 1492 1493 1495 1497 1498 1500 1502 1504 1506 1507 1508 1510 1511 1512 1513 1514 1514 1514 1513 1513 1513 1514 1514 1513 1513 1514 1515 1515 1515 1516 1517 1518 1520
1462 1464 1466 1459 1457 1457 1464 1476 1474 1478 1482 1486 1490 1493 1495 1495 1495 1496 1497 1498 1499 1500 1502 1503 1505 1506 1507 1508 1508 1509 1510 1510 1510 1510 1509 1509 1508 1508 1508 1507 1507 1508 1509 1509 1509 1510 1511 1513 1514
1465 1471 1468 1462 1457 1457 1462 1475 1476 1478 1483 1488 1492 1495 1497 1498 1498 1499 1499 1500 1500 1501 1502 1503 1504 1505 1506 1507 1507 1508 1507 1507 1507 1506 1506 1505 1504 1503 1502 1501 1501 1501 1502 1502 1504 1504 1505 1507 1509
1477 1473 1469 1470 1462 1460 1467 1475 1477 1479 1483 1488 1493 1496 1498 1499 1501 1501 1501 1501 1502 1502 1503 1503 1504 1505 1506 1506 1506 1506 1506 1505 1504 1503 1502 1501 1500 1498 1497 1496 1495 1495 1495 1496 1498 1499 1500 1502 1503
1464 1467 1472 1469 1461 1461 1466 1474 1476 1479 1484 1489 1493 1497 1499 1501 1503 1503 1503 1503 1503 1504 1504 1504 1505 1505 1505 1505 1505 1504 1504 1503 1502 1501 1499 1498 1496 1495 1493 1492 1491 1491 1490 1490 1492 1494 1495 1497 1499
1462 1469 1472 1469 1460 1461 1468 1475 1477 1481 1486 1490 1495 1498 1500 1502 1503 1504 1505 1505 1505 1505 1505 1505 1505 1505 1505 1504 1503 1503 1502 1501 1500 1498 1496 1495 1493 1492 1490 1489 1488 1487 1486 1485 1487 1489 1491 1492 1495
1466 1473 1472 1469 1464 1465 1476 1489 1490 1488 1492 1493 1495 1498 1500 1501 1503 1504 1505 1506 1506 1506 1506 1506 1504 1504 1503 1503 1502 1501 1500 1499 1498 1496 1494 1492 1490 1489 1487 1486 1485 1484 1483 1483 1483 1485 1487 1489 1491
1474 1466 1467 1469 1474 1479 1481 1506 1505 1501 1497 1495 1496 1497 1499 1501 1502 1504 1504 1505 1506 1506 1505 1504 1503 1502 1502 1501 1500 1499 1498 1497 1496 1494 1492 1490 1488 1486 1485 1484 1483 1482 1481 1481 1481 1482 1484 1485 1487
1468 1464 1470 1476 1482 1487 1493 1506 1512 1506 1501 1494 1494 1496 1498 1500 1501 1503 1504 1504 1504 1505 1504 1503 1502 1500 1499 1498 1498 1496 1495 1494 1492 1491 1489 1487 1485 1484 1482 1480 1479 1479 1478 1478 1478 1479 1480 1481 1483
1460 1467 1477 1485 1496 1510 1500 1507 1515 1505 1498 1491 1491 1494 1497 1498 1500 1501 1502 1502 1502 1502 1502 1501 1500 1498 1497 1495 1494 1493 1491 1490 1488 1486 1485 1483 1482 1481 1479 1477 1476 1475 1475 1475 1475 1476 1476 1477 1479
1463 1482 1509 1521 1525 1518 1496 1501 1502 1489 1486 1487 1490 1493 1495 1496 1497 1498 1499 1500 1500 1500 1499 1498 1497 1495 1494 1492 1491 1489 1488 1486 1484 1483 1481 1480 1479 1478 1477 1475 1473 1472 1472 1472 1472 1472 1472 1473 1474
1465 1473 1500 1513 1516 1509 1499 1502 1489 1481 1485 1487 1488 1490 1492 1494 1495 1496 1496 1497 1497 1497 1496 1495 1494 1492 1490 1489 1487 1485 1484 1482 1480 1479 1477 1476 1474 1474 1473 1471 1469 1468 1468 1468 1468 1468 1468 1469 1469
1465 1466 1462 1472 1477 1490 1500 1497 1489 1481 1484 1485 1487 1488 1490 1492 1493 1494 1494 1495 1495 1494 1493 1492 1490 1488 1487 1485 1483 1481 1479 1477 1475 1473 1472 1470 1469 1468 1468 1467 1465 1464 1463 1463 1463 1464 1464 1464 1465
1458 1459 1465 1474 1489 1492 1493 1499 1500 1489 1486 1484 1485 1487 1489 1490 1492 1492 1493 1493 1493 1492 1491 1489 1487 1485 1483 1481 1479 1477 1474 1472 1470 1468 1466 1465 1463 1462 1461 1461 1460 1459 1458 1458 1458 1458 1459 1460 1460
1463 1465 1467 1470 1474 1489 1494 1503 1483 1484 1482 1482 1484 1487 1489 1491 1492 1492 1492 1492 1491 1489 1488 1486 1484 1482 1479 1477 1474 1471 1469 1467 1464 1462 1460 1459 1457 1455 1454 1453 1453 1453 1453 1453 1453 1453 1454 1455 1456
1462 1466 1469 1482 1483 1477 1483 1498 1477 1478 1479 1482 1485 1488 1490 1491 1491 1491 1491 1490 1489 1487 1485 1483 1480 1478 1475 1472 1469 1466 1464 1461 1458 1456 1454 1452 1450 1448 1447 1446 1445 1445 1445 1446 1446 1447 1448 1449 1450